Tracking 29487 objects as of 12-Sep-2024
HD Live streaming from Space Station
objects crossing your sky now

INTELSAT 505

Track INTELSAT 505 now!
INTELSAT 505 is classified as:


NORAD ID: 13595
Int'l Code: 1982-097A
Perigee: 36,275.9 km
Apogee: 36,375.2 km
Inclination: 12.9 °
Period: 1,463.4 minutes
Semi major axis: 42696 km
RCS: 0.1428 m2 (medium)
Launch date: September 28, 1982
Source: International Telecommunications Satellite Organization (ITSO)
Launch site: AIR FORCE EASTERN TEST RANGE (AFETR)
Your satellite tracking list
Your tracking list is empty




NASA's NSSDC Master Catalog

Two Line Element Set (TLE):
1 13595U 82097A   24254.88682145 -.00000015  00000-0  00000-0 0  9995
2 13595  12.9282 335.5573 0011630  40.7603  22.7152  0.98404243121693
Source of the keplerian elements: AFSPC